Weather History for KMTJ - March, 2013

Change the Weather History Date:

Wednesday, March 6, 2013

  Actual Average Record
Temperature  
Mean Temperature 45 °F 38 °F  
Max Temperature 62 °F 51 °F 64 °F (2006)
Min Temperature 27 °F 26 °F 17 °F (2008)
Degree Days  
Heating Degree Days 20 27  
Month to date heating degree days 150 165  
Since 1 July heating degree days 4834 4880  
Cooling Degree Days 0 0  
Month to date cooling degree days 0 0  
Year to date cooling degree days 0 0  
Moisture  
Dew Point 19 °F    
Average Humidity 46    
Maximum Humidity 75    
Minimum Humidity 17    
Precipitation  
Precipitation 0.00 in 0.03 in 0.12 in (1998)
Month to date precipitation 0.13 0.21  
Year to date precipitation 0.94 1.44  
Sea Level Pressure  
Sea Level Pressure 29.96 in    
Wind  
Wind Speed 9 mph (South)    
Max Wind Speed 23 mph    
Max Gust Speed 30 mph    
Visibility 10 miles    
Events      
T = Trace of Precipitation, MM = Missing Value Source: NWS Daily Summary

Daily Weather History Graph

Daily Weather History Graph

Search for Another Location

Airport or City:

Trip Planner

Search our weather history database for the weather conditions in past years. The results will help you decide how hot, cold, wet, or windy it might be!

Date:

Astronomy

Mar. 06, 2013 Rise Set
Actual Time 6:35 AM MST 6:10 PM MST
Civil Twilight 6:09 AM MST 6:36 PM MST
Nautical Twilight 5:38 AM MST 7:07 PM MST
Astronomical Twilight 5:08 AM MST 7:38 PM MST
Moon 2:44 AM MST (3/6) 12:58 PM MST (3/6)
Length of Visible Light 12h 27m
Length of Day
11h 34m
Waning Crescent, 29% of the Moon is Illuminated
Mar 6
Waning Crescent
Mar 11
New
Mar 19
First Quarter
Mar 27
Full
Apr 2
Last Quarter

Hourly Weather History & Observations

Time (MST) Temp. Windchill Dew Point Humidity Pressure Visibility Wind Dir Wind Speed Gust Speed Precip Events Conditions
12:53 AM 30.0 °F 26.5 °F 21.0 °F 69% 30.14 in 10.0 mi SSW 3.5 mph - N/A   Clear
1:53 AM 28.9 °F 23.9 °F 21.0 °F 72% 30.12 in 10.0 mi SE 4.6 mph - N/A   Clear
2:53 AM 28.0 °F - 21.0 °F 75% 30.09 in 10.0 mi Calm Calm - N/A   Clear
3:53 AM 27.0 °F - 19.9 °F 75% 30.06 in 10.0 mi Calm Calm - N/A   Clear
4:53 AM 28.0 °F - 19.0 °F 69% 30.06 in 10.0 mi Calm Calm - N/A   Clear
5:53 AM 32.0 °F 26.4 °F 15.1 °F 50% 30.06 in 10.0 mi Variable 5.8 mph - N/A   Clear
6:53 AM 30.0 °F 23.2 °F 16.0 °F 56% 30.08 in 10.0 mi SE 6.9 mph - N/A   Clear
7:53 AM 35.1 °F 30.1 °F 17.1 °F 48% 30.06 in 10.0 mi ESE 5.8 mph - N/A   Clear
8:53 AM 41.0 °F 33.9 °F 16.0 °F 36% 30.05 in 10.0 mi ESE 12.7 mph - N/A   Clear
9:53 AM 45.0 °F 38.5 °F 17.1 °F 33% 30.04 in 10.0 mi East 13.8 mph - N/A   Clear
10:53 AM 52.0 °F - 19.9 °F 28% 29.97 in 10.0 mi East 15.0 mph - N/A   Clear
11:53 AM 60.1 °F - 19.9 °F 21% 29.92 in 10.0 mi West 19.6 mph 25.3 mph N/A   Clear
12:53 PM 59.0 °F - 19.0 °F 21% 29.90 in 10.0 mi SSW 15.0 mph - N/A   Clear
1:22 PM 59.0 °F - 17.6 °F 20% 29.96 in 10.0 mi West 15.0 mph - N/A   Clear
1:53 PM 61.0 °F - 18.0 °F 19% 29.86 in 10.0 mi SW 19.6 mph 27.6 mph N/A   Clear
2:53 PM 61.0 °F - 16.0 °F 17% 29.86 in 10.0 mi West 13.8 mph - N/A   Partly Cloudy
3:53 PM 61.0 °F - 16.0 °F 17% 29.87 in 10.0 mi SW 15.0 mph 19.6 mph N/A   Clear
4:53 PM 59.0 °F - 15.1 °F 18% 29.86 in 10.0 mi SW 13.8 mph 25.3 mph N/A   Clear
5:53 PM 55.0 °F - 18.0 °F 23% 29.86 in 10.0 mi SSW 8.1 mph - N/A   Clear
6:53 PM 53.1 °F - 18.0 °F 25% 29.87 in 10.0 mi South 8.1 mph - N/A   Clear
7:53 PM 48.9 °F - 21.9 °F 35% 29.87 in 10.0 mi South 9.2 mph - N/A   Clear
8:53 PM 46.0 °F 41.0 °F 21.9 °F 39% 29.86 in 10.0 mi South 10.4 mph - N/A   Clear
9:53 PM 45.0 °F 39.3 °F 21.9 °F 40% 29.86 in 10.0 mi SSE 11.5 mph - N/A   Clear
10:53 PM 42.1 °F 38.4 °F 23.0 °F 47% 29.85 in 10.0 mi SSE 5.8 mph - N/A   Clear
11:53 PM 41.0 °F 37.1 °F 23.0 °F 49% 29.83 in 10.0 mi SE 5.8 mph - N/A   Clear